Location: Hylvaty SDH
(49.9612°N, 16.4057°E)
Time: 12:32:42
(UTC+01:00)

A-11 Canister half - Pass Details

Date: 08 October 2020
Orbit: 1526 x 1683 km, 47.3° (Epoch: 28 October)

Event Time Altitude Azimuth Distance (km) Brightness Sun altitude
Rises 04:00:20 0° 288° (WNW) 4,712 - -29.7°
Reaches altitude 10° 04:04:02 10° 276° (W) 3,744 - -29.1°
Maximum altitude 04:11:12 25° 226° (SW) 2,778 - -28.1°
Exits shadow 04:16:50 15° 184° (S) 3,442 10.5 -27.3°
Drops below altitude 10° 04:18:32 10° 176° (S) 3,824 10.9 -27.1°
Sets 04:22:24 0° 164° (SSE) 4,833 11.5 -26.5°
